Regional Weather Roundup
Issued by NWS Goodland, KS

Home | Current Version | Previous Version | Graphics & Text | Print | Product List | Glossary Off
Versions: 1 2 3 4 5 6 7 8 9 10 11 12 13 14 15 16 17 18 19 20 21 22 23 24 25 26 27 28 29 30 31 32 33 34 35 36 37 38 39 40 41 42 43 44 45 46 47 48 49 50

000
ASUS43 KGLD 211759
RWRGLD

GOODLAND FORECAST AREA HOURLY WEATHER ROUNDUP
NATIONAL WEATHER SERVICE GOODLAND KS
1200 PM MDT TUE OCT 21 2014

...OFFICIAL OBSERVATIONS...

CITY           SKY/WX    TMP DP  RH WIND       PRES   REMARKS
GOODLAND KS    SUNNY     66  55  67 S14       30.03F
HILL CITY KS     N/A     75  59  57 SE14      30.05F
IMPERIAL NEB   SUNNY     71  55  56 S20G28    29.99F
MCCOOK NEB     SUNNY     75  56  51 S16G28    30.02F
AKRON CO       SUNNY     75  43  31 SW9       29.99F
BURLINGTON CO  SUNNY     74  46  36 S15       30.03F
LIMON CO       SUNNY     70  40  33 S13       30.05F
$$

...UNOFFICIAL OBSERVATIONS...

CITY           SKY/WX    TMP DP  RH WIND       PRES   REMARKS
COLBY KS       SUNNY     72  59  64 SE15G23   30.05F
GOVE KS          N/A     72  32  23 MISG        N/A
NORTON KS      SUNNY     73  54  49 SE17G24   30.04F
SHARON SPRINGS   N/A     71  57  61 S14         N/A
TRENTON NEB      N/A     74  32  21 S20         N/A
KIT CARSON CO    N/A     69  51  53 N7G15       N/A
YUMA CO          N/A     73  44  36 S20G26      N/A
$$



USA.gov is the U.S. government's official web portal to all federal, state and local government web resources and services.